Location: Chippewa Lake
(41.0698°N, 81.9010°W)
Time: 21:56:14
(UTC+00:00)

Thor Agena Rocket - Pass Details

Date: 09 May 2021
Orbit: 760 x 807 km, 99.0° (Epoch: 16 June)

Event Time Altitude Azimuth Distance (km) Brightness Sun altitude
Rises 05:04:03 0° 16° (NNE) 3,299 7.7 -31.3°
Reaches altitude 10° 05:06:24 10° 19° (NNE) 2,372 6.8 -31.4°
Enters shadow 05:10:11 46° 39° (NE) 1,060 4.4 -31.4°
